THOR ABLESTAR DEB, 121

Orbit data source: Space-Track

THOR ABLESTAR DEB, 121 is space debris in LEO originally from a launch on Thu, 29 Jun 1961 UTC launched from the Air Force Eastern Test Range (AFETR). Debris objects in space refer to the collection of defunct objects orbiting the Earth. Examples of debris include non-operational satellites, rocket bodies, and fragments generated from explosions, collisions, or faulty payload assembly.

Loading next visibility...
THOR ABLESTAR DEB details
Identifier
121, 1961-015F
Orbit
LEO
Last TLE update9 hours ago
Origin
Flag of USUSAF SSD (US)
ManufacturerUnknown
MissionSpacecraft
Bus & MotorUnknown
MassUnknown
Launch date (UTC)
1961-06-29 (64 years ago)
Launch vehicleUnknown
Launch site
Air Force Eastern Test Range (AFETR)
Object type
Payload
Rocket body
Debris
Shape & HBRUnknown
Radar Cross SectionMedium (>0.1 m² and <1 m²)

Expand to show TLE details & history

TLE from 9 hours ago
0 THOR ABLESTAR DEB
1   121U 61015F   25015.08812583  .00000067  00000-0  95582-4 0  9991
2   121  66.7462 249.3134 0092663   2.8925 357.2674 14.00088472253812
Epoch: 2025-01-15T02:06Z
Definitive object data (Epoch: 2025-01-15T02:06:54.071Z)
Latitude-0.00003°
Longitude102.8026°
Altitude828.259 km
Speed7.474 km/s
True Right ascension16h 37m 15s
True Declination0° 00' 00"
Sunlit
Object was in daylight at TLE epoch
Visualization TLE readout
Latitude-10.93974°
Longitude-73.43971°
Altitude964.157 km
Speed7.336 km/s
Apparent Right ascension03h 04m 09s
Apparent Declination-28° 27' 56"
Sunlit
Object is in full shadow
Visualization observer readout
Local Sidereal Time12:16:14
Azimuth275.225° WNW
Elevation-53.811°
Doppler factor1
Orbital elements
Apogee altitude959.247 km
Perigee altitude824.515 km
Semi-major axis7,270.018 km
Eccentricity0.0092663
Inclination66.7462°
RAAN249.3134°
Arg. of periapsis2.8925°
True anomaly357.21618°
Mean anomaly357.2674°
Eccentric anomaly357.24185°
Mean motion3.50139 °/min
BSTAR0.000095582
Orbital period102.82 mins
Loading maneuver chart data...

THOR ABLESTAR DEB Visibility forecast

Observer location: undefined°, undefined

Span
Click to sort rows by Start time (UTC) header in descending order
Start Az.
Max El. time (UTC)
Max El. Az.
Max El.
End time (UTC)
End Az.
7 mins2025-01-15 15:57:01.039Z152.034° SSE2025-01-15 16:01:01.039Z101.8° ESE20.768°2025-01-15 16:04:01.039Z64.522° ENE
9 mins2025-01-15 17:42:01.039Z233.391° WSW2025-01-15 17:46:01.039Z304.589° NW38.004°2025-01-15 17:51:01.039Z18.396° NNE
8 mins2025-01-16 00:57:01.039Z6.99° NNE2025-01-16 01:00:01.039Z47.142° ENE23.789°2025-01-16 01:05:01.039Z102.653° ESE
10 mins2025-01-16 02:42:01.039Z318.373° NNW2025-01-16 02:46:01.039Z252.078° W40.519°2025-01-16 02:52:01.039Z168.807° S
|